K5FEP Weather Reports


time (UTC)temp
F
wind
direction
speed
knots
gust
knots
rain 1hr
in
rain 24hr
in
rain mn
in
humidity
%
barometer
mb
20260508025629 48 226 0.0 0.0 0.00 0.15 0.15 97 1012.1
20260508025126 49 226 0.0 0.0 0.00 0.15 0.15 97 1012.3
20260508024622 49 226 0.0 0.0 0.00 0.15 0.15 97 1012.2
20260508024120 49 226 0.0 0.0 0.00 0.15 0.15 97 1012.4
20260508023615 50 226 0.0 0.0 0.00 0.15 0.15 97 1012.1
20260508023113 50 226 0.0 0.0 0.00 0.15 0.15 97 1011.9
20260508022609 50 226 0.0 0.0 0.00 0.15 0.15 97 1011.8
20260508022107 50 226 0.0 0.0 0.00 0.15 0.15 97 1012.0
20260508021602 50 226 0.0 0.0 0.00 0.15 0.15 97 1011.7
20260508021058 50 226 0.0 0.0 0.00 0.15 0.15 97 1011.5
20260508020556 51 226 0.0 0.0 0.00 0.15 0.15 97 1011.4
20260508020053 51 226 0.0 0.0 0.00 0.15 0.15 97 1011.4
20260508015551 51 226 0.0 0.0 0.00 0.15 0.15 97 1011.2
20260508015048 52 225 0.0 0.0 0.00 0.15 0.15 97 1011.2
20260508014543 52 226 0.0 0.0 0.00 0.15 0.15 96 1011.3
20260508014040 52 226 0.0 0.0 0.00 0.15 0.15 96 1011.1
20260508013536 52 226 0.0 0.0 0.00 0.15 0.15 96 1011.3
20260508013033 52 226 0.0 0.0 0.00 0.15 0.15 96 1011.0
20260508012531 52 226 0.0 0.0 0.00 0.15 0.15 96 1011.1
20260508012028 53 226 0.0 0.0 0.00 0.15 0.15 96 1010.9
20260508011526 53 226 0.0 0.0 0.00 0.15 0.15 96 1011.1
20260508011023 53 226 0.0 0.0 0.00 0.15 0.15 95 1011.1
20260508010520 53 226 0.0 0.0 0.00 0.15 0.15 95 1010.9
20260508010018 53 226 0.0 0.0 0.00 0.15 0.15 95 1011.1
20260508005514 54 226 0.0 0.0 0.00 0.15 0.15 95 1011.2
20260508005011 54 226 0.0 0.0 0.00 0.15 0.15 94 1011.1
20260508004506 54 226 0.0 0.0 0.00 0.15 0.15 94 1010.9
20260508004004 54 226 0.0 0.0 0.00 0.15 0.15 94 1011.0
20260508003500 54 226 0.0 0.0 0.00 0.15 0.15 94 1011.0
20260508002957 54 226 0.0 0.0 0.00 0.15 0.15 94 1011.1
20260508002453 54 226 0.0 0.0 0.00 0.15 0.15 94 1011.1
20260508001950 54 226 0.0 0.0 0.00 0.15 0.15 94 1010.9
20260508001446 54 226 0.0 0.0 0.00 0.15 0.15 93 1010.8
20260508000943 54 226 0.0 0.0 0.00 0.15 0.15 94 1010.7
20260508000438 55 226 0.0 0.0 0.00 0.15 0.15 94 1010.4
20260507235936 55 235 0.9 0.9 0.00 0.15 0.15 93 1010.4
20260507235432 55 258 0.0 0.9 0.00 0.15 0.15 93 1010.4
20260507234930 55 228 0.0 0.0 0.00 0.15 0.15 93 1010.5
20260507234427 55 229 0.0 0.9 0.00 0.15 0.15 93 1010.2
20260507233923 55 233 0.0 0.9 0.00 0.15 0.15 93 1010.1
20260507233420 55 234 0.0 0.9 0.00 0.15 0.15 93 1010.2
20260507232919 55 247 0.0 0.0 0.00 0.15 0.15 92 1010.1
20260507232415 55 241 0.0 0.9 0.00 0.15 0.15 92 1010.1
20260507231912 55 226 0.0 0.9 0.00 0.15 0.15 93 1010.0
20260507231408 55 275 0.0 0.9 0.00 0.15 0.15 93 1009.9
20260507230905 55 264 0.0 0.0 0.00 0.15 0.15 94 1009.9
20260507230402 55 262 0.0 0.0 0.00 0.15 0.15 93 1009.8
20260507225903 55 253 0.0 0.0 0.00 0.15 0.15 93 1010.1
20260507225359 55 227 0.0 0.9 0.00 0.15 0.15 92 1010.0
20260507224855 55 230 0.9 0.9 0.00 0.15 0.15 92 1010.0
20260507224351 55 225 0.0 1.7 0.00 0.15 0.15 92 1010.1
20260507223847 55 217 0.9 2.6 0.00 0.15 0.15 91 1010.0
20260507223344 56 233 0.9 1.7 0.00 0.15 0.15 91 1010.0
20260507222841 56 237 0.0 0.0 0.00 0.15 0.15 92 1010.2
20260507222337 56 245 0.0 1.7 0.00 0.15 0.15 91 1010.0
20260507221835 56 286 0.9 1.7 0.00 0.15 0.15 91 1010.0
20260507221331 56 276 0.0 0.0 0.00 0.15 0.15 92 1009.8
20260507220827 56 225 0.0 0.0 0.00 0.15 0.15 92 1009.9
20260507220326 56 231 0.9 1.7 0.00 0.15 0.15 91 1009.7
20260507215821 56 217 1.7 1.7 0.00 0.15 0.15 92 1009.7
20260507215319 56 228 0.9 0.9 0.00 0.15 0.15 92 1009.8
20260507214816 56 256 0.0 1.7 0.00 0.15 0.15 92 1009.7
20260507214314 56 224 0.0 1.7 0.00 0.15 0.15 93 1009.7
20260507213808 55 241 0.0 0.9 0.00 0.15 0.15 93 1009.6
20260507213305 55 226 0.0 1.7 0.00 0.15 0.15 93 1009.5
20260507212802 55 193 1.7 2.6 0.00 0.15 0.15 93 1010.0
20260507212258 55 243 0.0 0.9 0.00 0.15 0.15 93 1009.7
20260507211755 55 227 0.9 0.9 0.00 0.15 0.15 93 1009.7
20260507211251 55 214 1.7 2.6 0.00 0.15 0.15 93 1009.4
20260507210748 55 239 0.9 1.7 0.00 0.15 0.15 93 1009.5
20260507210245 55 244 0.0 0.9 0.00 0.15 0.15 94 1009.6
20260507205742 55 251 0.0 0.0 0.00 0.15 0.15 94 1009.8
20260507205239 55 253 0.0 0.0 0.00 0.15 0.15 93 1009.5
20260507204734 55 251 0.9 1.7 0.00 0.15 0.15 92 1009.7
20260507204233 56 229 2.6 2.6 0.00 0.15 0.15 92 1009.6
20260507203730 56 222 1.7 2.6 0.00 0.15 0.15 92 1009.8
20260507203227 56 234 0.0 0.9 0.00 0.15 0.15 94 1009.8
20260507202724 56 238 0.0 0.9 0.00 0.15 0.15 94 1009.7
20260507202220 55 208 0.9 2.6 0.00 0.15 0.15 93 1009.6
20260507201714 55 244 0.9 1.7 0.00 0.15 0.15 93 1010.0
20260507201212 56 255 0.9 0.9 0.05 0.15 0.15 93 1009.9
20260507200708 56 262 0.0 0.9 0.05 0.15 0.15 93 1010.0
20260507200204 55 218 0.0 0.9 0.00 0.14 0.14 93 1010.3
20260507195701 56 206 0.9 2.6 0.00 0.14 0.14 93 1009.9
20260507195158 56 219 0.0 1.7 0.00 0.14 0.14 93 1010.0
20260507194655 56 246 0.0 0.9 0.00 0.14 0.14 93 1010.0
20260507194150 56 239 0.9 0.9 0.00 0.14 0.14 93 1009.7
20260507193647 56 242 0.9 2.6 0.00 0.14 0.14 92 1010.1
20260507193145 55 215 0.9 0.9 0.00 0.14 0.14 92 1010.0
20260507192640 55 251 1.7 1.7 0.07 0.14 0.14 92 1010.2
20260507192138 55 135 0.9 2.6 0.07 0.14 0.14 92 1010.5
20260507191633 56 280 0.0 1.7 0.00 0.13 0.13 93 1010.1
20260507191130 56 224 0.0 1.7 0.00 0.13 0.13 92 1009.9
20260507190627 56 225 0.0 0.9 0.00 0.13 0.13 93 1010.3
20260507190126 56 257 0.9 0.9 0.00 0.13 0.13 92 1010.0
20260507185624 56 244 0.9 0.9 0.00 0.13 0.13 91 1009.8
20260507185120 56 228 1.7 1.7 0.07 0.13 0.13 91 1009.9
20260507184619 56 215 0.9 1.7 0.00 0.12 0.12 91 1009.8
20260507184116 56 254 0.9 1.7 0.00 0.12 0.12 90 1010.0
20260507183612 55 265 0.9 1.7 0.00 0.12 0.12 91 1010.1
20260507183109 55 219 0.9 1.7 0.00 0.12 0.12 92 1010.2
20260507182605 55 246 0.0 2.6 0.00 0.12 0.12 91 1010.3
20260507182101 56 255 0.0 0.9 0.00 0.12 0.12 92 1010.1
20260507181559 56 199 1.7 1.7 0.00 0.12 0.12 92 1010.2
20260507181055 56 223 0.9 2.6 0.00 0.12 0.12 92 1010.3
20260507180551 56 250 1.7 2.6 0.00 0.12 0.12 92 1010.2
20260507180048 55 241 0.9 0.9 0.00 0.12 0.12 93 1010.2
20260507175544 55 245 0.9 5.2 0.00 0.12 0.12 92 1010.1
20260507175042 56 212 2.6 3.5 0.00 0.12 0.12 92 1010.0
20260507174539 56 197 1.7 5.2 0.00 0.12 0.12 92 1010.0
20260507174037 56 260 0.9 3.5 0.00 0.12 0.12 92 1009.9
20260507173533 55 211 1.7 5.2 0.00 0.12 0.12 92 1010.0
20260507173031 55 210 3.5 5.2 0.00 0.12 0.12 92 1009.8
20260507172526 55 199 3.5 7.0 0.00 0.12 0.12 91 1010.1
20260507172024 55 236 1.7 6.1 0.00 0.12 0.12 92 1009.6
20260507171519 55 197 3.5 3.5 0.00 0.12 0.12 92 1009.8
20260507171017 55 206 4.3 6.1 0.00 0.12 0.12 92 1009.9
20260507170513 55 198 2.6 6.1 0.00 0.12 0.12 92 1009.9
20260507170010 55 208 3.5 5.2 0.00 0.12 0.12 93 1010.1
20260507165506 55 218 1.7 6.1 0.00 0.12 0.12 92 1010.1
20260507165002 55 227 1.7 5.2 0.00 0.12 0.12 93 1010.2
20260507164459 55 214 3.5 5.2 0.00 0.12 0.12 94 1010.2
20260507163955 55 207 1.7 5.2 0.00 0.12 0.12 94 1010.6
20260507163453 55 242 0.0 2.6 0.05 0.12 0.12 94 1010.5
20260507162950 55 217 4.3 7.8 0.05 0.12 0.12 94 1010.3
20260507162445 55 199 1.7 3.5 0.07 0.11 0.11 94 1010.2
20260507161943 55 236 3.5 6.1 0.07 0.11 0.11 93 1010.3
20260507161439 55 226 2.6 2.6 0.00 0.10 0.10 93 1010.6
20260507160936 55 199 1.7 3.5 0.00 0.10 0.10 93 1010.5
20260507160432 55 260 1.7 2.6 0.05 0.10 0.10 93 1010.6
20260507155927 55 216 0.9 2.6 0.05 0.10 0.10 93 1010.7
20260507155424 55 286 1.7 2.6 0.00 0.09 0.09 92 1010.6
20260507154921 55 224 1.7 5.2 0.00 0.09 0.09 92 1010.6
20260507154417 55 208 2.6 2.6 0.00 0.09 0.09 92 1010.9
20260507153915 55 227 2.6 7.0 0.00 0.09 0.09 91 1011.0
20260507153411 55 224 1.7 5.2 0.00 0.09 0.09 90 1011.0
20260507152908 55 194 5.2 6.1 0.00 0.09 0.09 90 1011.0
20260507152404 55 217 0.9 2.6 0.00 0.09 0.09 90 1010.6
20260507151900 55 200 1.7 3.5 0.00 0.09 0.09 90 1010.5
20260507151356 55 193 0.9 6.1 0.00 0.09 0.09 89 1010.3
20260507150854 55 217 3.5 3.5 0.00 0.09 0.09 89 1010.5
20260507150350 56 226 5.2 7.0 0.00 0.09 0.09 89 1010.3
20260507145846 56 209 1.7 6.1 0.00 0.09 0.09 89 1010.3
20260507145343 56 192 3.5 6.1 0.00 0.09 0.09 88 1010.2
20260507144840 56 170 1.7 7.0 0.00 0.09 0.09 89 1010.0
20260507144337 56 232 1.7 6.1 0.00 0.09 0.09 90 1009.9
20260507143834 56 220 5.2 7.0 0.00 0.09 0.09 90 1010.1
20260507143331 56 237 2.6 5.2 0.00 0.09 0.09 90 1009.9
20260507142827 56 243 2.6 5.2 0.00 0.09 0.09 91 1010.0
20260507142323 57 226 3.5 6.1 0.00 0.09 0.09 90 1010.0
20260507141820 57 197 7.0 8.7 0.00 0.09 0.09 89 1010.2
20260507141317 57 222 3.5 11.3 0.00 0.09 0.09 90 1010.2
20260507140813 58 235 1.7 5.2 0.00 0.09 0.09 91 1009.9
20260507140310 59 189 3.5 5.2 0.00 0.09 0.09 91 1009.5
20260507135808 60 229 5.2 6.1 0.00 0.09 0.09 90 1009.2
20260507135306 62 212 5.2 13.0 0.00 0.09 0.09 87 1009.1
20260507134802 66 189 1.7 2.6 0.00 0.09 0.09 94 1008.7
20260507134258 65 260 0.0 0.9 0.00 0.09 0.09 94 1009.1
20260507133754 66 206 0.9 1.7 0.00 0.09 0.09 94 1009.2
20260507133250 66 267 0.0 0.0 0.00 0.09 0.09 95 1009.5
20260507132748 66 256 0.0 0.0 0.00 0.09 0.09 95 1009.5
20260507132245 65 242 0.9 0.9 0.00 0.09 0.09 96 1009.6
20260507131742 65 241 0.0 0.9 0.00 0.09 0.09 96 1009.7
20260507131239 65 220 0.0 0.0 0.00 0.09 0.09 96 1009.8
20260507130735 65 220 0.0 0.0 0.00 0.09 0.09 96 1009.8
20260507130233 65 227 0.0 0.0 0.00 0.09 0.09 96 1009.4
20260507125731 65 8 0.9 0.9 0.00 0.09 0.09 96 1009.5
20260507125229 65 58 0.0 0.9 0.00 0.09 0.09 96 1009.4
20260507124725 65 8 0.9 0.9 0.07 0.09 0.09 96 1009.4
20260507124222 65 329 0.9 0.9 0.07 0.09 0.09 97 1009.2
20260507123721 64 305 0.0 0.9 0.00 0.08 0.08 97 1009.1
20260507123218 64 220 0.0 0.0 0.05 0.08 0.08 97 1009.3
20260507122713 64 220 0.0 0.0 0.05 0.08 0.08 97 1009.6
20260507122209 64 220 0.0 0.0 0.00 0.07 0.07 97 1009.7
20260507121705 64 221 0.0 0.0 0.00 0.07 0.07 97 1009.7
20260507121201 64 282 0.0 0.0 0.00 0.07 0.07 97 1009.5
20260507120657 64 282 0.0 0.0 0.00 0.07 0.07 97 1009.5
20260507120154 64 282 0.0 0.0 0.00 0.07 0.07 97 1009.4
20260507115651 64 282 0.0 0.0 0.00 0.07 0.07 97 1009.5
20260507115146 64 282 0.0 0.0 0.00 0.07 0.07 97 1009.4
20260507114642 64 283 0.0 0.0 0.00 0.07 0.07 97 1009.4
20260507114140 64 235 0.0 0.0 0.00 0.07 0.07 97 1009.6
20260507113637 64 297 0.0 0.0 0.00 0.07 0.07 97 1009.4
20260507113133 64 297 0.0 0.0 0.00 0.07 0.07 97 1009.5
20260507112632 64 297 0.0 0.0 0.00 0.07 0.07 97 1009.2
20260507112128 64 298 0.0 0.0 0.00 0.07 0.07 96 1009.6
20260507111625 64 298 0.0 0.0 0.00 0.07 0.07 97 1009.9
20260507111122 64 298 0.0 0.0 0.00 0.07 0.07 96 1009.7
20260507110618 64 297 0.0 0.0 0.00 0.07 0.07 96 1009.5
20260507110115 64 297 0.0 0.0 0.00 0.07 0.07 96 1009.3
20260507105612 64 297 0.0 0.0 0.00 0.07 0.07 96 1009.5
20260507105107 64 297 0.0 0.0 0.00 0.07 0.07 96 1009.4
20260507104606 64 297 0.0 0.9 0.00 0.07 0.07 96 1009.3
20260507104101 64 297 0.0 0.0 0.00 0.07 0.07 96 1009.1
20260507103558 64 297 0.0 0.0 0.00 0.07 0.07 96 1009.3
20260507103055 64 297 0.0 0.0 0.00 0.07 0.07 96 1009.1
20260507102551 64 297 0.0 0.0 0.00 0.07 0.07 96 1008.5
20260507102047 64 298 0.0 0.9 0.00 0.07 0.07 96 1008.8
20260507101543 64 305 0.0 0.0 0.07 0.07 0.07 96 1008.4
20260507101039 64 305 0.0 0.0 0.07 0.07 0.07 96 1008.8
20260507100537 64 305 0.0 0.0 0.00 0.06 0.06 96 1009.3
20260507100035 64 305 0.0 0.0 0.00 0.06 0.06 96 1009.1
20260507095532 64 271 0.0 0.0 0.00 0.06 0.06 96 1009.2
20260507095029 64 305 0.0 0.0 0.00 0.06 0.06 96 1009.3
20260507094525 64 292 0.0 0.9 0.00 0.06 0.06 96 1009.3
20260507094022 64 286 0.0 0.0 0.00 0.06 0.06 96 1009.2
20260507093519 64 286 0.0 0.0 0.00 0.06 0.06 96 1009.6
20260507093018 64 286 0.0 0.0 0.00 0.06 0.06 96 1009.6
20260507092514 64 285 0.0 0.0 0.00 0.06 0.06 96 1009.4
20260507092011 64 285 0.0 0.0 0.00 0.06 0.06 96 1009.3
20260507091508 64 285 0.0 0.0 0.00 0.06 0.06 96 1009.1
20260507091003 64 285 0.0 0.0 0.00 0.06 0.06 96 1009.2
20260507090459 64 285 0.0 0.0 0.00 0.06 0.06 96 1009.4
20260507085956 64 285 0.0 0.0 0.00 0.06 0.06 95 1009.3
20260507085454 64 286 0.0 0.0 0.00 0.06 0.06 95 1009.4
20260507084950 64 288 0.0 0.0 0.00 0.06 0.06 95 1009.1
20260507084447 64 278 0.0 0.0 0.00 0.06 0.06 95 1009.3
20260507083944 64 278 0.0 0.0 0.00 0.06 0.06 95 1009.2
20260507083440 65 278 0.0 0.0 0.00 0.06 0.06 95 1009.1
20260507082937 65 278 0.0 0.0 0.00 0.06 0.06 95 1008.9
20260507082433 65 278 0.0 0.0 0.05 0.06 0.06 95 1009.1
20260507081930 65 280 0.0 0.0 0.05 0.06 0.06 95 1009.1
20260507081426 65 284 0.0 0.0 0.00 0.05 0.05 95 1009.0
20260507080923 65 186 0.9 1.7 0.00 0.05 0.05 95 1009.1
20260507080419 65 70 0.9 1.7 0.00 0.05 0.05 95 1009.0
20260507075914 65 82 1.7 2.6 0.00 0.05 0.05 95 1009.1
20260507075411 65 172 0.9 1.7 0.00 0.05 0.05 95 1008.8
20260507074908 65 200 0.0 2.6 0.00 0.05 0.05 96 1008.7
20260507074404 65 59 0.9 2.6 0.00 0.05 0.05 96 1008.1
20260507073902 64 291 0.9 1.7 0.00 0.05 0.05 96 1008.1
20260507073358 64 318 0.9 1.7 0.00 0.05 0.05 96 1008.2
20260507072855 64 290 0.0 1.7 0.00 0.05 0.05 96 1008.3
20260507072353 65 292 0.0 0.0 0.00 0.05 0.05 96 1008.6
20260507071850 65 280 0.9 0.9 0.00 0.05 0.05 95 1008.9
20260507071347 64 288 0.0 0.9 0.00 0.05 0.05 95 1008.9
20260507070843 64 298 0.0 0.9 0.00 0.05 0.05 95 1008.5
20260507070341 64 300 0.0 0.9 0.00 0.05 0.05 95 1008.8
20260507065837 65 271 0.0 0.0 0.00 0.05 0.05 95 1008.5
20260507065334 65 271 0.0 0.9 0.00 0.05 0.05 95 1008.8
20260507064831 65 195 0.0 0.0 0.00 0.05 0.05 95 1008.8
20260507064330 65 192 0.0 0.0 0.00 0.05 0.05 95 1009.3
20260507063827 65 111 0.0 0.0 0.00 0.05 0.05 95 1009.7
20260507063324 65 347 0.0 0.0 0.00 0.05 0.05 94 1009.6
20260507062821 65 73 0.9 0.9 0.00 0.05 0.05 94 1009.7
20260507062318 65 39 0.9 0.9 0.00 0.05 0.05 94 1009.9
20260507061816 66 355 0.9 0.9 0.00 0.05 0.05 94 1009.7
20260507061313 66 10 0.0 0.9 0.00 0.05 0.05 94 1009.9
20260507060812 66 32 0.9 1.7 0.00 0.05 0.05 94 1010.1
20260507060308 66 69 1.7 3.5 0.00 0.05 0.05 94 1010.3
20260507055805 66 55 1.7 2.6 0.07 0.05 0.05 94 1010.2
20260507055300 66 33 0.9 2.6 0.07 0.05 0.05 94 1010.3
20260507054756 66 125 1.7 2.6 0.00 0.04 0.04 95 1010.3
20260507054253 66 87 1.7 2.6 0.00 0.04 0.04 95 1010.3
20260507053750 66 56 1.7 3.5 0.00 0.04 0.04 95 1010.5
20260507053248 66 37 0.9 1.7 0.00 0.04 0.04 95 1010.6
20260507052747 66 59 2.6 2.6 0.00 0.04 0.04 95 1010.9
20260507052243 66 59 0.9 2.6 0.00 0.04 0.04 95 1011.0
20260507051741 66 68 1.7 3.5 0.00 0.04 0.04 95 1010.7
20260507051237 66 17 0.9 1.7 0.00 0.04 0.04 95 1010.5
20260507050734 66 13 0.0 0.9 0.00 0.04 0.04 95 1010.4
20260507050231 66 35 0.9 2.6 0.00 0.04 0.04 94 1010.4
20260507045728 66 39 1.7 1.7 0.00 0.04 0.04 94 1010.7
20260507045224 66 60 0.0 1.7 0.00 0.04 0.04 94 1010.6
20260507044721 66 99 0.0 1.7 0.00 0.04 0.04 94 1010.8
20260507044218 66 92 0.9 1.7 0.00 0.04 0.04 94 1010.8
20260507043714 66 177 0.9 0.9 0.00 0.04 0.04 94 1010.3
20260507043211 66 299 0.0 0.0 0.00 0.04 0.04 94 1010.1
20260507042707 66 302 0.0 0.0 0.00 0.04 0.04 93 1009.6
20260507042202 66 263 1.7 2.6 0.05 0.04 0.04 92 1009.6
20260507041700 66 341 0.0 0.0 0.07 0.03 0.03 92 1011.0
20260507041156 66 49 0.9 1.7 0.12 0.03 0.03 91 1011.1
20260507040653 66 65 0.9 2.6 0.07 0.01 0.01 91 1011.3
20260507040149 66 10 0.9 1.7 0.07 0.00 0.00 91 1011.4
20260507035646 66 64 1.7 3.5 0.12 0.11 0.11 91 1011.7
20260507035142 66 66 0.9 1.7 0.05 0.10 0.10 91 1011.6
20260507034639 66 30 0.9 3.5 0.00 0.09 0.09 91 1011.6
20260507034136 66 92 0.9 1.7 0.07 0.09 0.09 91 1011.7
20260507033634 66 28 1.7 1.7 0.07 0.09 0.09 90 1011.7
20260507033131 66 33 0.9 1.7 0.00 0.08 0.08 90 1011.3
20260507032629 66 61 0.9 1.7 0.00 0.08 0.08 89 1011.4
20260507032125 66 22 0.9 1.7 0.00 0.08 0.08 88 1011.0
20260507031621 66 18 0.0 0.0 0.00 0.08 0.08 87 1010.9
20260507031118 66 18 0.0 0.9 0.00 0.08 0.08 87 1010.9
20260507030615 66 20 0.0 0.9 0.00 0.08 0.08 86 1011.0
20260507030113 67 21 0.9 0.9 0.00 0.08 0.08 85 1010.9